Simultaneous Nadir Overpasses (SNOs) Predictions

Prediction of SNOs between LANDSAT-8 and NPP Satellite Orbit:

Table of predicted SNOs for the next 14.0 days since TLE Epoch: 10/3/2014
Index Date (LANDSAT-8) Time (LANDSAT-8) Lat,Lon (LANDSAT-8) SZA (LANDSAT-8 ) Date (NPP) Time (NPP) Lat,Lon (NPP) SZA (NPP ) Distance(km) Time Diff (sec)
1 10/05/2014 01:12:18 -70.79, -20.61 104.68 10/05/2014 01:11:30 -70.78, -20.54 104.69 3.13 48
2 10/05/2014 02:01:45 70.69, 146.87 75.23 10/05/2014 02:02:15 70.70, 146.90 75.25 1.63 30
3 10/07/2014 16:39:07 71.42, -71.37 76.98 10/07/2014 16:37:58 71.44, -73.23 76.99 65.89 69
4 10/07/2014 17:28:47 -70.77, 95.23 103.68 10/07/2014 17:28:29 -70.78, 95.21 103.66 1.67 18
5 10/07/2014 18:18:14 70.66, -97.28 76.24 10/07/2014 18:19:13 70.66, -97.27 76.23 0.99 59
6 10/10/2014 08:55:47 70.82, 43.56 77.39 10/10/2014 08:54:46 70.83, 43.57 77.40 0.97 61
7 10/10/2014 09:45:17 -70.72,-148.97 102.71 10/10/2014 09:45:28 -70.74,-148.96 102.68 2.94 11
8 10/10/2014 10:34:54 70.06, 17.71 76.65 10/10/2014 10:36:02 70.09, 19.38 76.69 63.16 68
9 10/13/2014 01:12:16 70.79, 159.40 78.37 10/13/2014 01:11:45 70.80, 159.38 78.38 1.34 31
10 10/13/2014 02:01:46 -70.69, -33.13 101.73 10/13/2014 02:02:27 -70.71, -33.15 101.71 2.77 41
11 10/15/2014 16:39:16 -70.95, 107.88 100.50 10/15/2014 16:38:03 -71.05, 107.42 100.40 20.21 73
12 10/15/2014 17:28:45 70.73, -84.82 79.30 10/15/2014 17:28:43 70.73, -84.74 79.30 2.75 2
13 10/15/2014 18:18:15 -70.62, 82.66
